2015-049G (40905 NORAD) Tracking and Keplerian Element Data

This shows tracking and keplerian element data for the satellite.

Feedback or suggestion? Click here.




ElementValue
Catalog40905
Name2015-049G
Epoch Orbit33259
Epoch Day269.23121821
Epoch Year2021
RAAN266.8551
Inclination97.505
Eccentricity0.001456
Argument of Perigee203.4184
Mean Anonmoly212.6455
Mean Motion15.15151998
Decay Rate8.12E-06
L11 40905U 15049G 21269.23121821 .00000812 00000-0 46789-4 0 9996
L22 40905 97.5050 266.8551 0014560 203.4184 212.6455 15.15151998332599

Live tracking and technical data element details for 2015-049G (NORAD 40905). 2015-049G can be tracked NOW for your location showing map with azimuth and elevation plus other details from your city location.

Track the satellite on the map from your city or location and see movement details for azimuth, elevation, latitude, longitude, range, height, and movement on the map or in text.







IsCatalogInMostPopularTable: catalog: 40905, numindb: 561
Update: records affected: 1



GetName: 40905 2015-049G

Hit Count: updated at: Mon, 27 Sep 2021 01:03:42 GMT